Location: Bj�rn�ya
(74.5000°N, 19.0000°E)
Time: 09:10:31
(UTC+02:00)

Envisat - Pass Details

Date: 05 February 2022
Orbit: 764 x 765 km, 98.2° (Epoch: 20 May)

Event Time Altitude Azimuth Distance (km) Brightness Sun altitude
Rises 17:10:03 0° 214° (SW) 3,234 7.1 -12.0°
Reaches altitude 10° 17:12:50 10° 229° (SW) 2,310 6.6 -12.2°
Maximum altitude 17:16:51 23° 281° (W) 1,597 5.5 -12.5°
Drops below altitude 10° 17:20:53 10° 334° (NNW) 2,319 5.7 -12.7°
Sets 17:23:41 0° 349° (NNW) 3,249 6.2 -12.9°
